CAPE
2735 1821 1428 880 769 719 850 1082 1208 1326 1460 1599 1654 1521 1367 1304 1318 1378 1548 1375 1259 1199 791 665 636 708 760 759 707 679 1048 982
2641 2137 1787 1492 1233 762 731 875 1147 1316 1524 1590 1543 1458 1369 1316 1317 1395 1546 1391 1295 959 662 581 623 662 666 611 581 523 1206 927
2529 2460 2172 1893 1807 1393 816 763 865 1033 1313 1468 1537 1508 1599 1578 1419 1486 1557 1431 1200 603 528 602 603 548 528 468 380 708 750 815
2617 2586 2493 2308 2062 2054 1490 1347 1152 1239 1367 1636 1544 1424 1629 1501 1362 1567 1381 1443 1100 602 528 572 542 716 637 372 584 881 515 757
2567 2564 2606 2579 2268 2132 2012 1821 1551 1523 1591 1716 1584 1576 1854 1698 1723 1729 1687 1447 1267 743 674 786 714 872 742 647 577 734 550 796
2063 2384 2526 2710 2252 1948 1928 1920 1940 1788 1744 1982 1845 1800 1855 1771 1562 1723 1574 1429 1126 1034 918 835 836 1046 842 915 865 840 460 820
0 2166 2360 2615 2597 1987 1932 1947 1801 1751 1779 1997 2010 1720 1985 1986 1868 1551 1508 1536 1309 1167 1021 926 1085 956 851 803 809 736 732 564
0 727 2241 2350 2453 2380 2079 1974 1805 2068 2055 1908 2236 1946 2016 1941 1793 1768 1638 1693 1529 1289 1141 1024 1173 959 784 774 759 706 609 569
0 101 1792 2304 2397 2195 2048 1759 1870 2083 1888 1966 2128 2183 2011 1776 1916 1828 1758 1832 1571 1294 1156 1113 1052 922 829 713 648 558 510 494
0 0 1096 2262 2217 2089 1938 1746 1844 1641 1664 1716 1733 1988 1944 2001 1874 1899 1894 1917 1792 1703 1428 1328 1134 911 798 748 632 609 492 421
0 0 0 1872 2221 2114 2035 1906 1824 1633 1561 1649 1886 1750 1952 2119 1680 1751 2097 1809 1812 1824 1658 1477 1098 991 894 794 723 608 607 423
0 0 0 869 2119 2066 1936 1893 1753 1686 1519 1525 1785 1871 1778 2133 1677 1575 1682 1697 1801 1538 1301 1275 1119 887 883 786 678 650 601 463
0 0 0 0 1910 1803 1986 1661 1666 1736 1590 1427 1527 1722 1682 1775 1707 1418 1282 1547 1387 1216 1122 1045 1190 1086 1028 727 778 717 718 621
0 0 0 0 1189 1960 1834 1832 1659 1707 1447 1329 1327 1429 1652 1616 1502 1363 1160 1066 1240 1113 970 908 1112 1039 962 667 404 340 556 556
0 0 0 0 23 1683 1939 1982 1648 1542 1293 1281 1508 1548 1507 1334 1190 1446 1175 1102 1266 1062 931 824 774 664 821 521 266 93 30 461
1 1 3 0 4 151 1806 1424 1554 1411 1322 1430 1467 1694 1713 1665 1344 1392 1389 1304 1227 1341 961 750 661 496 687 925 750 384 155 97
0 3 1 0 0 4 1239 1294 1639 1391 1426 1452 1702 1864 1935 1895 1703 1470 1688 1767 1509 1510 931 746 666 688 515 484 638 870 425 311
1 1 1 1 0 2 273 1468 1264 1176 1086 1499 2078 1853 1760 1828 1810 1818 1772 1837 1732 1236 1397 737 845 782 820 585 768 473 299 378
3 1 2 2 2 2 3 2 255 118 0 1 1314 1593 1415 1560 1531 1581 1895 1918 1742 1389 1321 949 819 1021 639 554 759 480 352 360
2 5 3 2 2 2 3 3 4 3 0 7 13 271 828 1750 1907 1528 1406 1297 1166 1140 1255 1096 1050 943 712 167 831 773 546 313
CIN
-45 -161 -228 -320 -314 -298 -260 -185 -130 -109 -90 -68 -59 -60 -71 -71 -64 -53 -29 -26 -39 -39 -92 -93 -88 -65 -68 -53 -51 -45 -19 -4
-24 -76 -122 -167 -210 -293 -279 -230 -142 -105 -78 -68 -62 -56 -57 -62 -53 -47 -30 -34 -33 -61 -88 -112 -85 -68 -64 -64 -60 -51 -11 -4
-23 -30 -60 -90 -99 -171 -275 -264 -203 -145 -83 -62 -45 -20 -20 -18 -27 -24 -22 -29 -44 -97 -104 -87 -91 -80 -67 -74 -77 -8 -4 -6
-10 -15 -20 -33 -39 -45 -132 -144 -160 -121 -66 -31 -15 -2 -2 -1 -8 -12 -22 -21 -42 -90 -86 -81 -76 -19 -38 -82 -43 -4 -1 -15
-3 -11 -2 -7 -10 -15 -35 -41 -62 -63 -50 -10 -12 0 -4 -1 -1 -4 -1 -2 -5 -62 -68 -34 -24 -3 -4 -16 -5 -1 -2 -11
-3 -2 -7 -4 -11 -19 -22 -24 -21 -25 -30 -3 -2 -1 -4 -1 -2 -2 -1 -2 -2 -9 -10 -12 -1 -1 -1 -1 -1 -1 -2 -16
0 -3 -3 -7 -5 -19 -26 -28 -24 -28 -31 -27 -11 -5 -1 -1 -2 -2 -4 -1 -1 -4 -1 -2 -1 -1 -2 -1 -2 -2 -2 -3
0 -62 -4 -4 -8 -7 -32 -48 -25 -14 -17 -22 -18 -12 -1 -1 -6 -3 -9 -2 -5 -6 -6 -7 -3 -2 -2 -2 -1 -2 -3 -2
0 -17 -7 -3 -6 -15 -17 -66 -40 -31 -41 -34 -31 -9 -5 -10 -1 -4 -1 -2 -2 -13 -9 -7 -2 -3 -3 -3 -1 -1 -2 -2
0 0 -31 -3 -3 -19 -20 -35 -56 -52 -58 -61 -84 -46 -14 -15 -4 -2 -3 -1 -2 -3 -6 -2 -2 -4 -2 -2 -6 -3 -2 -2
0 0 0 -6 -4 -3 -17 -18 -49 -72 -64 -59 -80 -89 -33 -20 -59 -27 -3 -1 -1 -1 -1 -1 -2 -2 -5 -2 -2 -4 -3 -3
0 0 0 -24 -6 -3 -11 -9 -24 -62 -75 -91 -47 -77 -76 -16 -56 -58 -35 -6 -11 -18 -20 -8 -2 -2 -2 -6 -8 -5 -2 -5
0 0 0 0 -5 -8 0 -12 -34 -100 -110 -122 -56 -63 -120 -84 -64 -81 -92 -47 -61 -60 -39 -31 -3 -2 -2 -7 -2 -7 -1 -1
0 0 0 0 -6 -5 -3 -2 -51 -115 -127 -147 -166 -124 -115 -122 -110 -65 -108 -106 -71 -79 -59 -51 -25 -16 -12 -22 -38 -33 -26 -20
0 0 0 0 -308 -6 -4 0 -3 -37 -85 -75 -117 -111 -102 -152 -158 -69 -114 -115 -75 -99 -82 -55 -57 -86 -32 -48 -49 -107 -77 -27
0 -1 -1 -3 -51 -246 -8 -5 -4 -32 -35 -64 -69 -70 -55 -79 -115 -83 -83 -92 -71 -67 -103 -93 -56 -90 -38 -26 -24 -31 -27 -5
0 0 -1 -1 0 0 -8 -17 -1 -3 -27 -30 -22 -25 -33 -20 -61 -59 -47 -33 -84 -33 -143 -113 -94 -47 -60 -47 -29 -5 -23 -8
0 0 0 0 0 0 -181 -8 -17 -24 -30 -6 -8 -41 -68 -41 -28 -20 -15 -11 -42 -73 -48 -109 -73 -22 -29 -41 -15 -52 -60 -11
0 0 0 0 0 0 0 0 -206 -172 0 0 -2 -6 -50 -67 -70 -45 -11 -9 -13 -25 -20 -61 -68 -24 -92 -94 -5 -31 -99 -48
0 0 0 0 0 0 0 0 0 0 0 -29 -13 -155 -121 -21 -25 -36 -36 -29 -32 -18 -6 -15 -27 -40 -66 -142 -12 -1 -14 -62
Wind_Speed
8 4 4 3 3 3 3 5 7 7 7 7 7 7 7 6 6 6 6 6 7 8 9 10 10 11 11 11 10 9 11 12
10 6 6 5 4 2 2 4 5 5 5 5 6 6 6 6 5 5 5 6 7 7 8 9 9 10 10 10 10 9 9 14
13 9 8 7 6 5 3 3 3 3 3 2 4 4 5 5 6 5 4 5 6 6 6 7 8 9 9 10 10 9 10 9
17 14 11 10 9 7 6 4 4 4 3 4 4 4 5 5 6 4 4 4 5 5 5 6 6 7 8 8 9 9 9 11
19 16 16 12 11 8 8 6 6 5 5 4 5 4 2 4 4 4 4 3 3 4 4 4 4 4 6 7 8 9 8 11
23 20 17 17 15 13 11 9 8 7 7 6 4 3 2 2 4 3 4 3 3 3 3 3 2 6 10 8 8 7 8 9
31 25 22 20 19 16 14 13 10 8 7 8 7 6 5 3 2 2 3 1 3 2 2 2 4 6 6 8 9 8 10 10
35 29 26 24 22 22 16 14 13 13 11 7 9 7 6 5 5 2 2 1 1 1 3 3 4 3 4 7 9 10 8 10
38 34 28 29 27 24 23 18 16 12 13 11 11 10 7 6 5 6 3 1 3 2 5 4 4 7 10 10 10 10 11 10
41 40 31 30 31 29 26 23 20 17 15 13 12 13 10 8 9 6 7 8 5 4 4 6 6 7 8 11 11 13 10 12
44 42 43 32 32 34 30 25 24 22 18 17 14 14 13 9 10 10 7 8 8 6 7 6 7 8 8 12 14 16 17 15
43 44 44 38 35 34 33 31 26 25 23 21 17 15 15 13 10 11 12 12 10 10 10 9 10 11 13 11 13 16 17 17
45 45 47 43 34 37 37 35 29 25 26 21 19 17 16 16 14 12 12 13 12 12 12 11 12 12 16 20 20 17 16 15
47 47 47 47 40 36 39 35 31 27 25 26 24 22 18 17 16 14 13 15 14 13 13 15 13 12 16 18 22 19 14 13
48 49 47 47 48 40 40 37 34 32 30 28 26 23 21 18 17 16 15 15 15 15 14 15 15 14 13 17 21 23 24 16
46 46 45 43 42 45 42 41 38 35 31 26 26 24 21 17 16 17 16 15 18 15 16 16 16 19 17 17 22 27 26 28
40 41 41 41 41 41 45 44 39 34 32 29 28 25 23 22 18 19 18 18 17 18 17 18 19 20 18 21 23 23 23 30
35 35 36 36 36 37 39 45 44 35 33 33 27 25 23 27 23 22 22 20 18 19 19 19 19 18 19 23 22 21 25 27
30 29 30 29 30 29 29 31 36 35 37 30 18 26 22 24 24 26 26 23 21 21 22 22 21 21 19 23 30 22 19 27
25 23 24 23 23 22 20 22 27 27 25 24 21 26 24 26 22 23 24 21 24 23 24 25 24 23 27 24 21 25 22 22
Wind_Direction
306 247 232 220 188 156 125 120 123 121 121 119 115 114 104 94 89 80 68 54 41 50 70 75 77 78 68 66 66 73 31 30
288 268 246 241 247 221 167 142 140 135 132 123 118 114 108 105 96 86 73 66 44 39 55 71 73 77 72 70 61 71 63 20
278 266 252 250 251 249 228 183 175 164 152 134 122 116 117 115 120 102 76 61 36 47 45 49 58 66 72 78 79 97 52 64
273 267 255 249 257 259 245 220 202 189 177 157 152 141 128 128 128 113 100 65 24 26 35 34 58 68 73 86 104 87 64 40
273 263 263 253 253 253 251 236 234 221 204 196 174 164 141 145 121 118 118 89 47 21 30 39 60 76 79 88 111 46 56 38
276 264 256 256 257 255 259 242 237 234 221 217 224 214 227 175 149 126 142 113 119 79 55 59 49 352 332 359 11 39 34 51
279 269 257 253 252 257 255 254 243 233 224 215 220 222 247 227 220 169 145 127 130 24 55 44 354 341 338 338 346 355 356 8
275 271 261 253 251 255 252 249 249 251 255 236 210 227 254 266 261 252 194 262 144 343 328 349 338 336 335 329 331 339 349 348
275 274 262 255 251 250 254 250 246 240 241 231 227 210 236 248 253 264 223 260 291 294 308 330 334 328 319 322 323 325 328 337
274 271 265 255 251 251 249 251 247 248 249 243 233 216 220 232 264 257 268 289 290 291 297 309 315 321 319 316 317 318 323 323
272 270 266 255 251 250 248 246 246 247 248 248 235 226 222 239 250 258 268 272 280 277 292 298 311 313 315 315 313 311 313 318
277 270 267 262 251 248 247 246 243 247 247 249 244 236 227 237 248 255 259 273 276 282 281 287 303 307 311 315 314 311 313 313
275 272 267 268 249 247 243 242 239 239 246 242 244 243 233 235 246 253 258 260 268 273 278 282 290 300 305 304 307 311 311 312
275 271 268 263 259 248 245 243 241 239 241 241 237 239 237 232 233 245 253 263 268 270 266 281 283 285 297 303 306 311 304 304
279 271 267 262 259 255 245 243 243 241 240 242 240 240 240 237 231 245 256 257 264 265 264 271 281 283 276 296 305 305 309 312
280 272 266 263 263 260 237 239 238 240 241 242 246 245 244 242 243 247 255 259 267 268 267 268 276 282 283 279 288 299 306 304
286 275 265 263 260 258 249 240 242 242 240 238 239 242 249 255 252 258 255 262 265 270 269 265 268 278 282 288 284 289 295 294
290 278 267 264 258 259 252 244 244 245 251 237 233 242 249 262 265 266 267 267 267 266 271 266 268 264 281 284 286 284 290 291
294 283 268 264 255 256 256 250 247 248 255 287 224 249 258 264 268 273 275 272 272 272 270 268 263 268 269 285 283 279 284 286
296 291 274 266 256 250 261 257 257 261 261 263 273 267 271 273 273 277 276 277 278 273 270 269 269 267 277 283 270 276 284 281